�N����,����,�g�[���i���ԁj���x,�g�[�����x,��g�[���i���ցj���x,����
 2004/10/01, 0:00,23.8,62,24.2,24.6
 2004/10/01, 0:15,23.7,62,24.1,24.6
 2004/10/01, 0:30,23.7,62,24.1,24.6
 2004/10/01, 0:45,23.6,62,24,24.6
 2004/10/01, 1:00,23.5,62,23.9,24.6
 2004/10/01, 1:15,23.4,62,23.8,24.6
 2004/10/01, 1:30,23.3,62,23.7,24.5
 2004/10/01, 1:45,23.2,62,23.6,24.5
 2004/10/01, 2:00,23.1,62,23.5,24.5
 2004/10/01, 2:15,23,63,23.4,24.5
 2004/10/01, 2:30,22.9,63,23.4,24.4
 2004/10/01, 2:45,22.9,64,23.4,24.4
 2004/10/01, 3:00,22.8,64,23.3,24.3
 2004/10/01, 3:15,22.7,64,23.2,24.3
 2004/10/01, 3:30,22.6,64,23.2,24.3
 2004/10/01, 3:45,22.5,65,23.1,24.2
 2004/10/01, 4:00,22.4,65,23,24.2
 2004/10/01, 4:15,22.4,65,22.9,24.1
 2004/10/01, 4:30,22.3,65,22.8,24.1
 2004/10/01, 4:45,22.2,65,22.7,24
 2004/10/01, 5:00,22.1,65,22.6,24
 2004/10/01, 5:15,22,65,22.6,23.9
 2004/10/01, 5:30,21.9,66,22.5,23.9
 2004/10/01, 5:45,21.8,66,22.5,23.8
 2004/10/01, 6:00,21.8,66,22.4,23.7
 2004/10/01, 6:15,21.7,66,22.3,23.7
 2004/10/01, 6:30,21.6,66,22.3,23.6
 2004/10/01, 6:45,21.6,66,22.2,23.6
 2004/10/01, 7:00,21.6,66,22.2,23.5
 2004/10/01, 7:15,21.6,67,22.2,23.5
 2004/10/01, 7:30,21.6,67,22.3,23.4
 2004/10/01, 7:45,21.7,68,22.3,23.4
 2004/10/01, 8:00,21.8,67,22.3,23.3
 2004/10/01, 8:15,22,63,22.4,23.3
 2004/10/01, 8:30,22.2,62,22.5,23.9
 2004/10/01, 8:45,23,59,22.5,23.8
 2004/10/01, 9:00,25.1,50,22.6,23.7
 2004/10/01, 9:15,24.3,54,22.8,23.7
 2004/10/01, 9:30,23.9,55,23,23.6
 2004/10/01, 9:45,24.1,55,23.2,23.6
 2004/10/01,10:00,24.4,56,23.3,23.6
 2004/10/01,10:15,24.8,56,23.5,23.6
 2004/10/01,10:30,25.3,56,23.8,23.6
 2004/10/01,10:45,25.5,55,24,23.6
 2004/10/01,11:00,25.8,55,24.2,23.6
 2004/10/01,11:15,26.1,55,24.4,23.6
 2004/10/01,11:30,26.5,54,24.6,23.6
 2004/10/01,11:45,26.8,54,24.8,23.6
 2004/10/01,12:00,26.9,54,25,23.6
 2004/10/01,12:15,27.1,54,25.2,23.6
 2004/10/01,12:30,27.3,54,25.4,23.7
 2004/10/01,12:45,27.4,54,25.7,23.7
 2004/10/01,13:00,27.5,53,25.9,23.7
 2004/10/01,13:15,27.6,54,26.1,23.8
 2004/10/01,13:30,27.8,53,26.4,23.8
 2004/10/01,13:45,27.9,54,26.7,23.9
 2004/10/01,14:00,28.1,54,26.9,23.9
 2004/10/01,14:15,28.3,55,27.2,23.9
 2004/10/01,14:30,28.5,54,27.5,24
 2004/10/01,14:45,28.6,54,27.8,24
 2004/10/01,15:00,28.7,54,28,24.1
 2004/10/01,15:15,28.8,54,28.3,24.1
 2004/10/01,15:30,28.9,53,28.5,24.2
 2004/10/01,15:45,28.8,53,28.7,24.3
 2004/10/01,16:00,28.6,54,28.8,24.3
 2004/10/01,16:15,28.4,55,28.9,24.4
 2004/10/01,16:30,28.3,56,28.9,24.5
 2004/10/01,16:45,28.3,56,28.9,24.5
 2004/10/01,17:00,28.1,56,28.7,24.6
 2004/10/01,17:15,28,57,28.5,24.7
 2004/10/01,17:30,27.8,57,28.2,24.7
 2004/10/01,17:45,27.7,57,28.1,24.8
 2004/10/01,18:00,27.5,57,27.7,24.9
 2004/10/01,18:15,27.3,57,27.5,24.9
 2004/10/01,18:30,27.1,58,27.4,25
 2004/10/01,18:45,27,59,27.3,25.1
 2004/10/01,19:00,26.8,60,27.1,24.8
 2004/10/01,19:15,26.9,61,27.1,24.8
 2004/10/01,19:30,26.9,63,27.1,24.9
 2004/10/01,19:45,26.9,63,27.1,24.9
 2004/10/01,20:00,26.9,63,27,25
 2004/10/01,20:15,26.9,63,26.9,25.1
 2004/10/01,20:30,26.9,64,26.9,25.1
 2004/10/01,20:45,26.9,64,26.9,25.2
 2004/10/01,21:00,26.9,64,26.9,25.2
 2004/10/01,21:15,26.9,64,26.9,25.3
 2004/10/01,21:30,27,64,26.9,25.3
 2004/10/01,21:45,27,64,26.9,25.4
 2004/10/01,22:00,27.1,64,26.9,25.4
 2004/10/01,22:15,27,64,26.9,25.5
 2004/10/01,22:30,27,63,26.9,25.5
 2004/10/01,22:45,27,63,26.8,25.6
 2004/10/01,23:00,27,64,26.8,25.6
 2004/10/01,23:15,26.9,63,26.7,25.6
 2004/10/01,23:30,26.9,63,26.7,24.6
 2004/10/01,23:45,26.8,63,26.6,24.7
 2004/10/02, 0:00,26.8,63,26.6,24.7
 2004/10/02, 0:15,26.7,64,26.6,24.7
 2004/10/02, 0:30,26.6,64,26.5,24.8
 2004/10/02, 0:45,26.5,65,26.5,24.8
 2004/10/02, 1:00,26.5,64,26.5,24.8
 2004/10/02, 1:15,26.4,64,26.4,24.9
 2004/10/02, 1:30,26.3,64,26.4,24.9
 2004/10/02, 1:45,26.2,64,26.3,24.9
 2004/10/02, 2:00,26.1,64,26.2,24.9
 2004/10/02, 2:15,26,64,26.1,25
 2004/10/02, 2:30,26,64,26.1,25
 2004/10/02, 2:45,25.9,65,26,25
 2004/10/02, 3:00,25.8,67,26,25
 2004/10/02, 3:15,25.7,67,26,25.1
 2004/10/02, 3:30,25.6,66,25.9,25.1
 2004/10/02, 3:45,25.6,67,25.8,25.1
 2004/10/02, 4:00,25.5,67,25.8,25.1
 2004/10/02, 4:15,25.4,67,25.7,25.1
 2004/10/02, 4:30,25.3,67,25.6,25.2
 2004/10/02, 4:45,25.2,67,25.6,24
 2004/10/02, 5:00,25.2,67,25.5,24
 2004/10/02, 5:15,25.2,68,25.5,24
 2004/10/02, 5:30,25.1,68,25.4,24.1
 2004/10/02, 5:45,25.1,68,25.4,24.1
 2004/10/02, 6:00,25.1,68,25.4,24.1
 2004/10/02, 6:15,25.1,69,25.4,24.1
 2004/10/02, 6:30,25.1,69,25.4,24.2
 2004/10/02, 6:45,25.1,69,25.4,24.2
 2004/10/02, 7:00,25.1,69,25.3,24.2
 2004/10/02, 7:15,25,69,25.3,24.2
 2004/10/02, 7:30,25,70,25.3,24.3
 2004/10/02, 7:45,24.9,70,25.2,24.3
 2004/10/02, 8:00,24.9,70,25.2,24.3
 2004/10/02, 8:15,24.9,70,25.2,24.3
 2004/10/02, 8:30,24.8,70,25.2,24.3
 2004/10/02, 8:45,24.8,70,25.1,24.3
 2004/10/02, 9:00,24.8,70,25,24.4
 2004/10/02, 9:15,24.7,71,25,24.4
 2004/10/02, 9:30,24.7,71,25,24.4
 2004/10/02, 9:45,24.7,71,25,24.4
 2004/10/02,10:00,24.6,71,24.9,24.4
 2004/10/02,10:15,24.6,71,24.9,24.4
 2004/10/02,10:30,24.5,71,24.9,24.4
 2004/10/02,10:45,24.5,71,24.9,24.4
 2004/10/02,11:00,24.5,72,24.9,24.4
 2004/10/02,11:15,24.6,72,24.9,24.5
 2004/10/02,11:30,24.6,72,24.9,24.5
 2004/10/02,11:45,24.6,72,24.9,24.5
 2004/10/02,12:00,24.5,72,24.9,24.5
 2004/10/02,12:15,24.5,71,24.9,24.5
 2004/10/02,12:30,24.5,71,24.9,24.5
 2004/10/02,12:45,24.6,70,24.9,24.5
 2004/10/02,13:00,24.6,71,24.9,24.5
 2004/10/02,13:15,24.8,70,25,24.5
 2004/10/02,13:30,25.1,69,25.1,24.5
 2004/10/02,13:45,25.2,69,25.1,24.5
 2004/10/02,14:00,25.2,69,25.2,24.6
 2004/10/02,14:15,25.2,69,25.2,24.6
 2004/10/02,14:30,25.1,70,25.2,24.6
 2004/10/02,14:45,25.2,70,25.2,24.6
 2004/10/02,15:00,25.2,70,25.2,24.6
 2004/10/02,15:15,25.2,70,25.3,24.6
 2004/10/02,15:30,25.2,70,25.4,24.6
 2004/10/02,15:45,25.2,70,25.3,24.7
 2004/10/02,16:00,25.2,70,25.3,24.7
 2004/10/02,16:15,25.3,68,25.6,24.7
 2004/10/02,16:30,25.3,68,25.6,24.7
 2004/10/02,16:45,25.3,68,25.6,24.7
 2004/10/02,17:00,25.2,69,25.5,24.7
 2004/10/02,17:15,25.2,69,25.4,24.8
 2004/10/02,17:30,25.1,69,25.3,24.8
 2004/10/02,17:45,25,69,25.2,24.8
 2004/10/02,18:00,24.9,70,25.2,24.8
 2004/10/02,18:15,24.9,70,25.2,24.8
 2004/10/02,18:30,24.9,70,25.1,24.8
 2004/10/02,18:45,24.8,70,25.1,24.8
 2004/10/02,19:00,24.8,70,25,24.9
 2004/10/02,19:15,24.8,71,25,24.9
 2004/10/02,19:30,24.8,71,24.9,24.9
 2004/10/02,19:45,24.8,71,25,24.9
 2004/10/02,20:00,24.7,71,24.9,24.9
 2004/10/02,20:15,24.7,71,24.9,24.9
 2004/10/02,20:30,24.8,72,24.9,24.9
 2004/10/02,20:45,24.8,71,24.9,24.9
 2004/10/02,21:00,24.8,72,24.9,24.9
 2004/10/02,21:15,24.7,72,24.9,24.9
 2004/10/02,21:30,24.7,71,24.9,24.9
 2004/10/02,21:45,24.7,71,24.8,24.9
 2004/10/02,22:00,24.7,71,24.8,24.9
 2004/10/02,22:15,24.6,71,24.8,24.9
 2004/10/02,22:30,24.6,71,24.7,24.9
 2004/10/02,22:45,24.6,71,24.7,24.9
 2004/10/02,23:00,24.6,71,24.7,24.9
 2004/10/02,23:15,24.5,71,24.6,24.9
 2004/10/02,23:30,24.5,71,24.6,24.8
 2004/10/02,23:45,24.4,71,24.6,24.8
 2004/10/03, 0:00,24.4,71,24.5,24.8
 2004/10/03, 0:15,24.4,71,24.5,24.8
 2004/10/03, 0:30,24.3,72,24.5,24.8
 2004/10/03, 0:45,24.3,71,24.4,24.8
 2004/10/03, 1:00,24.3,71,24.4,24.8
 2004/10/03, 1:15,24.2,71,24.3,24.8
 2004/10/03, 1:30,24.2,71,24.3,24.7
 2004/10/03, 1:45,24.1,71,24.2,24.7
 2004/10/03, 2:00,24,71,24.2,24.7
 2004/10/03, 2:15,24,71,24.1,24.7
 2004/10/03, 2:30,23.9,71,24.1,24.7
 2004/10/03, 2:45,23.9,71,24,24.6
 2004/10/03, 3:00,23.9,70,24,24.6
 2004/10/03, 3:15,23.8,70,23.9,24.6
 2004/10/03, 3:30,23.7,70,23.9,24.6
 2004/10/03, 3:45,23.7,70,23.8,24.5
 2004/10/03, 4:00,23.6,69,23.8,24.5
 2004/10/03, 4:15,23.5,69,23.7,24.5
 2004/10/03, 4:30,23.5,68,23.7,24.5
 2004/10/03, 4:45,23.4,68,23.6,24.4
 2004/10/03, 5:00,23.4,68,23.6,24.4
 2004/10/03, 5:15,23.3,68,23.5,24.4
 2004/10/03, 5:30,23.2,68,23.4,24.4
 2004/10/03, 5:45,23.1,68,23.4,24.3
 2004/10/03, 6:00,23,68,23.3,24.3
 2004/10/03, 6:15,23,68,23.2,24.3
 2004/10/03, 6:30,22.9,68,23.2,24.2
 2004/10/03, 6:45,22.8,68,23.2,24.2
 2004/10/03, 7:00,22.8,68,23.2,24.2
 2004/10/03, 7:15,22.7,68,23.1,24.2
 2004/10/03, 7:30,22.7,68,23.1,24.1
 2004/10/03, 7:45,22.7,68,23,24.1
 2004/10/03, 8:00,22.6,68,23,24.1
 2004/10/03, 8:15,22.6,67,23,24
 2004/10/03, 8:30,22.5,67,23,24
 2004/10/03, 8:45,22.5,68,23,24
 2004/10/03, 9:00,22.5,68,23,23.9
 2004/10/03, 9:15,22.5,68,23,23.9
 2004/10/03, 9:30,22.5,68,22.9,23.9
 2004/10/03, 9:45,22.5,68,23,23.9
 2004/10/03,10:00,22.5,68,23,23.9
 2004/10/03,10:15,22.5,68,23,23.8
 2004/10/03,10:30,22.7,67,23,23.8
 2004/10/03,10:45,22.7,67,23.1,23.8
 2004/10/03,11:00,22.8,67,23.1,23.8
 2004/10/03,11:15,23,66,23.2,23.8
 2004/10/03,11:30,23.1,66,23.3,23.7
 2004/10/03,11:45,23.2,66,23.3,23.7
 2004/10/03,12:00,23.3,66,23.4,23.7
 2004/10/03,12:15,23.3,66,23.4,23.7
 2004/10/03,12:30,23.5,65,23.4,23.7
 2004/10/03,12:45,23.4,65,23.5,23.7
 2004/10/03,13:00,23.6,64,23.6,23.7
 2004/10/03,13:15,23.7,64,23.6,23.8
 2004/10/03,13:30,23.7,64,23.7,23.8
 2004/10/03,13:45,23.6,61,23.6,23.8
 2004/10/03,14:00,23.7,63,23.7,23.8
 2004/10/03,14:15,23.7,64,23.7,23.8
 2004/10/03,14:30,23.5,61,23.6,23.8
 2004/10/03,14:45,23.4,60,23.6,23.8
 2004/10/03,15:00,23.4,60,23.6,23.9
 2004/10/03,15:15,23.4,60,23.7,23.9
 2004/10/03,15:30,23.5,59,23.7,23.9
 2004/10/03,15:45,23.4,59,23.7,23.9
 2004/10/03,16:00,23.3,59,23.7,23.9
 2004/10/03,16:15,23.1,60,23.7,23.9
 2004/10/03,16:30,23,60,23.6,24
 2004/10/03,16:45,22.9,61,23.7,24
 2004/10/03,17:00,22.8,61,23.5,24
 2004/10/03,17:15,22.7,61,23.5,24
 2004/10/03,17:30,22.6,63,23.4,24
 2004/10/03,17:45,22.5,63,23.3,24.1
 2004/10/03,18:00,22.4,63,23.2,24.1
 2004/10/03,18:15,22.5,64,23.3,24.1
 2004/10/03,18:30,22.6,64,23.2,24.1
 2004/10/03,18:45,22.6,64,23.2,24.1
 2004/10/03,19:00,22.8,64,23.2,24.1
 2004/10/03,19:15,23.1,63,23.3,24.1
 2004/10/03,19:30,23,63,23.2,24.1
 2004/10/03,19:45,23,63,23.2,24.1
 2004/10/03,20:00,23,63,23.2,24.1
 2004/10/03,20:15,23,63,23.2,24.1
 2004/10/03,20:30,23,63,23.2,24.1
 2004/10/03,20:45,22.9,63,23.2,24
 2004/10/03,21:00,22.9,63,23.2,24
 2004/10/03,21:15,22.9,63,23.1,24
 2004/10/03,21:30,22.8,63,23,24
 2004/10/03,21:45,22.8,63,23,24
 2004/10/03,22:00,22.8,63,23,23.9
 2004/10/03,22:15,22.7,64,23,23.9
 2004/10/03,22:30,22.7,64,23,23.9
 2004/10/03,22:45,22.7,63,22.9,23.9
 2004/10/03,23:00,22.7,63,22.9,23.9
 2004/10/03,23:15,22.6,63,22.8,23.8
 2004/10/03,23:30,22.6,64,22.8,23.8
 2004/10/03,23:45,22.5,64,22.7,23.8
 2004/10/04, 0:00,22.5,64,22.7,23.7
 2004/10/04, 0:15,22.5,65,22.7,23.7
 2004/10/04, 0:30,22.4,64,22.6,23.7
 2004/10/04, 0:45,22.4,64,22.6,23.6
 2004/10/04, 1:00,22.3,64,22.5,23.6
 2004/10/04, 1:15,22.3,64,22.5,23.6
 2004/10/04, 1:30,22.2,65,22.5,23.5
 2004/10/04, 1:45,22.2,65,22.4,23.5
 2004/10/04, 2:00,22.2,65,22.4,23.5
 2004/10/04, 2:15,22.1,66,22.4,23.4
 2004/10/04, 2:30,22.1,66,22.3,23.4
 2004/10/04, 2:45,22,66,22.3,23.4
 2004/10/04, 3:00,22,66,22.3,23.3
 2004/10/04, 3:15,21.9,67,22.2,23.3
 2004/10/04, 3:30,21.8,67,22.2,23.3
 2004/10/04, 3:45,21.8,67,22.2,23.2
 2004/10/04, 4:00,21.7,67,22.1,23.2
 2004/10/04, 4:15,21.7,67,22.1,23.2
 2004/10/04, 4:30,21.6,68,22.1,23.1
 2004/10/04, 4:45,21.6,68,22,23.1
 2004/10/04, 5:00,21.6,69,22,23
 2004/10/04, 5:15,21.5,69,22,23
 2004/10/04, 5:30,21.5,70,21.9,23
 2004/10/04, 5:45,21.4,70,21.9,22.9
 2004/10/04, 6:00,21.3,70,21.8,22.9
 2004/10/04, 6:15,21.3,70,21.7,22.8
 2004/10/04, 6:30,21.2,70,21.7,22.8
 2004/10/04, 6:45,21.2,70,21.7,22.8
 2004/10/04, 7:00,21.2,70,21.7,22.7
 2004/10/04, 7:15,21.2,71,21.7,22.7
 2004/10/04, 7:30,21.2,70,21.7,22.6
 2004/10/04, 7:45,21.3,70,21.8,22.6
 2004/10/04, 8:00,21.4,70,21.8,22.6
 2004/10/04, 8:15,21.5,70,21.9,22.6
 2004/10/04, 8:30,21.6,69,22,22.5
 2004/10/04, 8:45,21.8,68,22.1,22.5
 2004/10/04, 9:00,21.8,68,22.2,22.5
 2004/10/04, 9:15,21.9,68,22.2,22.5
 2004/10/04, 9:30,22.1,68,22.3,22.5
 2004/10/04, 9:45,22.3,67,22.4,22.4
 2004/10/04,10:00,22.4,67,22.6,22.4
 2004/10/04,10:15,22.6,67,22.7,22.4
 2004/10/04,10:30,22.8,66,22.9,22.5
 2004/10/04,10:45,23,66,23,22.5
 2004/10/04,11:00,23.2,66,23.2,22.5
 2004/10/04,11:15,23.4,65,23.4,22.5
 2004/10/04,11:30,24.6,59,23.7,22.5
 2004/10/04,11:45,25.4,56,23.9,22.6
 2004/10/04,12:00,26.2,52,24.2,22.6
 2004/10/04,12:15,26.7,49,24.5,22.6
 2004/10/04,12:30,27.2,49,24.8,22.7
 2004/10/04,12:45,27.4,47,25.1,22.7
 2004/10/04,13:00,27.6,46,25.3,22.8
 2004/10/04,13:15,27.8,44,25.5,22.8
 2004/10/04,13:30,27.9,45,25.7,22.9
 2004/10/04,13:45,27.9,48,26,23
 2004/10/04,14:00,27.9,49,26.2,23
 2004/10/04,14:15,27.9,48,26.4,23.1
 2004/10/04,14:30,27.9,48,26.5,23.1
 2004/10/04,14:45,27.8,46,26.7,23.2
 2004/10/04,15:00,27.7,46,26.8,23.3
 2004/10/04,15:15,27.7,46,26.9,23.3
 2004/10/04,15:30,27.6,46,27.1,23.4
 2004/10/04,15:45,27.4,47,27.1,23.5
 2004/10/04,16:00,27,46,27.1,23.5
 2004/10/04,16:15,26.4,47,26.8,23.6
 2004/10/04,16:30,25.9,48,26.8,23.7
 2004/10/04,16:45,25.5,49,26.7,23.7
 2004/10/04,17:00,25.3,50,26.5,23.8
 2004/10/04,17:15,25,51,26.2,23.9
 2004/10/04,17:30,24.6,52,25.8,23.9
 2004/10/04,17:45,24.2,53,25.5,24
 2004/10/04,18:00,24.3,53,25.3,24.1
 2004/10/04,18:15,24.3,54,25.2,24.1
 2004/10/04,18:30,24.3,54,25,24.2
 2004/10/04,18:45,24.2,54,24.9,24.2
 2004/10/04,19:00,24.2,55,24.9,24.2
 2004/10/04,19:15,24.2,55,24.7,24.2
 2004/10/04,19:30,24.1,55,24.5,24.2
 2004/10/04,19:45,24,56,24.4,24.3
 2004/10/04,20:00,24,56,24.3,24.3
 2004/10/04,20:15,23.9,57,24.3,24.3
 2004/10/04,20:30,23.8,57,24.2,24.3
 2004/10/04,20:45,23.8,57,24.1,24.3
 2004/10/04,21:00,23.7,58,24.1,24.3
 2004/10/04,21:15,23.7,58,24.1,23.8
 2004/10/04,21:30,23.7,58,24,23.8
 2004/10/04,21:45,23.7,58,24,23.8
 2004/10/04,22:00,23.7,58,24,23.9
 2004/10/04,22:15,23.7,59,23.9,23.9
 2004/10/04,22:30,23.7,59,23.9,23.9
 2004/10/04,22:45,23.6,59,23.9,23.9
 2004/10/04,23:00,23.6,59,23.8,23.9
 2004/10/04,23:15,23.6,59,23.8,23.9
 2004/10/04,23:30,23.6,59,23.8,23.9
 2004/10/04,23:45,23.6,60,23.7,23.9
 2004/10/05, 0:00,23.6,60,23.7,23.9
 2004/10/05, 0:15,23.6,60,23.7,23.9
 2004/10/05, 0:30,23.5,61,23.7,23.9
 2004/10/05, 0:45,23.5,61,23.7,23.9
 2004/10/05, 1:00,23.5,61,23.6,23.9
 2004/10/05, 1:15,23.4,62,23.7,23.9
 2004/10/05, 1:30,23.4,63,23.6,23.9
 2004/10/05, 1:45,23.4,63,23.6,23.9
 2004/10/05, 2:00,23.4,64,23.7,23.9
 2004/10/05, 2:15,23.4,64,23.6,23.9
 2004/10/05, 2:30,23.4,64,23.6,23.9
 2004/10/05, 2:45,23.4,64,23.6,23.9
 2004/10/05, 3:00,23.4,64,23.5,23.9
 2004/10/05, 3:15,23.3,64,23.5,23.9
 2004/10/05, 3:30,23.3,64,23.6,23.9
 2004/10/05, 3:45,23.3,65,23.5,23.9
 2004/10/05, 4:00,23.3,65,23.5,23.9
 2004/10/05, 4:15,23.3,66,23.5,23.2
 2004/10/05, 4:30,23.2,68,23.5,23.2
 2004/10/05, 4:45,23.2,68,23.5,23.2
 2004/10/05, 5:00,23.2,68,23.4,23.2
 2004/10/05, 5:15,23.1,69,23.3,23.2
 2004/10/05, 5:30,23.1,69,23.4,23.2
 2004/10/05, 5:45,23,69,23.3,23.3
 2004/10/05, 6:00,23,69,23.3,23.3
 2004/10/05, 6:15,23,69,23.3,23.2
 2004/10/05, 6:30,23,69,23.2,23.3
 2004/10/05, 6:45,22.9,69,23.2,23.2
 2004/10/05, 7:00,22.9,69,23.2,23.2
 2004/10/05, 7:15,22.9,69,23.1,23.2
 2004/10/05, 7:30,22.8,69,23.1,23.2
 2004/10/05, 7:45,22.7,69,23.1,23.2
 2004/10/05, 8:00,22.7,69,23,23.2
 2004/10/05, 8:15,22.6,69,23,23.2
 2004/10/05, 8:30,22.6,69,22.9,23.2
 2004/10/05, 8:45,22.5,70,22.9,22.6
 2004/10/05, 9:00,22.5,70,22.9,22.5
 2004/10/05, 9:15,22.5,70,22.9,22.5
 2004/10/05, 9:30,22.4,71,22.9,22.5
 2004/10/05, 9:45,22.4,71,22.9,22.6
 2004/10/05,10:00,22.4,71,22.9,22.6
 2004/10/05,10:15,22.5,70,22.9,22.6
 2004/10/05,10:30,22.5,71,22.9,22.9
 2004/10/05,10:45,22.7,70,22.9,22.8
 2004/10/05,11:00,22.7,72,22.9,22.8
 2004/10/05,11:15,22.8,72,22.9,22.8
 2004/10/05,11:30,22.9,72,23,22.8
 2004/10/05,11:45,22.9,72,23,22.9
 2004/10/05,12:00,22.9,72,23,22.8
 2004/10/05,12:15,22.9,72,23,22.8
 2004/10/05,12:30,22.9,73,23,22.8
 2004/10/05,12:45,22.9,73,23,22.8
 2004/10/05,13:00,22.8,73,23,22.8
 2004/10/05,13:15,22.9,73,23,22.8
 2004/10/05,13:30,22.8,73,23,22.8
 2004/10/05,13:45,22.8,73,23,22.9
 2004/10/05,14:00,22.7,74,23,22.9
 2004/10/05,14:15,22.7,74,22.9,22.9
 2004/10/05,14:30,22.7,74,22.9,22.9
 2004/10/05,14:45,22.7,74,22.9,22.9
 2004/10/05,15:00,22.7,73,23,22.9
 2004/10/05,15:15,22.7,73,23,22.9
 2004/10/05,15:30,22.8,73,23,22.9
 2004/10/05,15:45,22.8,72,23,22.9
 2004/10/05,16:00,22.8,73,23,22.9
 2004/10/05,16:15,22.8,72,23,22.9
 2004/10/05,16:30,22.8,72,23,22.9
 2004/10/05,16:45,22.7,73,23,22.9
 2004/10/05,17:00,22.7,72,23,22.9
 2004/10/05,17:15,22.7,72,22.9,22.9
 2004/10/05,17:30,22.7,72,22.9,22.9
 2004/10/05,17:45,22.6,72,22.8,22.9
 2004/10/05,18:00,22.5,72,22.8,22.9
 2004/10/05,18:15,22.5,73,22.8,23.2
 2004/10/05,18:30,22.4,72,22.7,23.2
 2004/10/05,18:45,22.4,72,22.7,23.2
 2004/10/05,19:00,22.4,72,22.7,23.1
 2004/10/05,19:15,22.4,72,22.7,23.1
 2004/10/05,19:30,22.5,72,22.7,23.1
 2004/10/05,19:45,22.5,72,22.7,23.1
 2004/10/05,20:00,22.5,72,22.6,23
 2004/10/05,20:15,22.5,72,22.6,23
 2004/10/05,20:30,22.5,72,22.6,23
 2004/10/05,20:45,22.5,72,22.6,23
 2004/10/05,21:00,22.5,72,22.6,22.9
 2004/10/05,21:15,22.5,72,22.6,22.9
 2004/10/05,21:30,22.5,72,22.6,22.9
 2004/10/05,21:45,22.4,71,22.6,22.9
 2004/10/05,22:00,22.4,71,22.5,22.8
 2004/10/05,22:15,22.3,71,22.5,22.8
 2004/10/05,22:30,22.3,71,22.4,22.8
 2004/10/05,22:45,22.3,71,22.4,22.8
 2004/10/05,23:00,22.3,71,22.4,22.7
 2004/10/05,23:15,22.2,71,22.3,22.7
 2004/10/05,23:30,22.2,71,22.3,22.7
 2004/10/05,23:45,22.2,71,22.3,22.7
 2004/10/06, 0:00,22.1,72,22.3,22.7
 2004/10/06, 0:15,22.2,72,22.3,22.6
 2004/10/06, 0:30,22.1,73,22.3,22.6
 2004/10/06, 0:45,22.1,73,22.3,22.6
 2004/10/06, 1:00,22.1,74,22.3,22.6
 2004/10/06, 1:15,22.1,74,22.2,22.6
 2004/10/06, 1:30,22.1,74,22.3,22.6
 2004/10/06, 1:45,22,75,22.3,22.5
 2004/10/06, 2:00,22,75,22.3,22.5
 2004/10/06, 2:15,22,74,22.2,22.5
 2004/10/06, 2:30,21.9,74,22.2,22.5
 2004/10/06, 2:45,21.9,74,22.2,22.5
 2004/10/06, 3:00,21.9,74,22.2,22.5
 2004/10/06, 3:15,21.8,74,22.1,23.4
 2004/10/06, 3:30,21.8,74,22.1,23.4
 2004/10/06, 3:45,21.7,75,22.1,23.3
 2004/10/06, 4:00,21.7,76,22,23.2
 2004/10/06, 4:15,21.7,76,22,23.2
 2004/10/06, 4:30,21.6,76,21.9,23.1
 2004/10/06, 4:45,21.6,76,21.9,23.1
 2004/10/06, 5:00,21.5,75,21.8,23.1
 2004/10/06, 5:15,21.4,75,21.8,23
 2004/10/06, 5:30,21.4,76,21.8,23
 2004/10/06, 5:45,21.3,76,21.7,22.9
 2004/10/06, 6:00,21.3,76,21.7,22.9
 2004/10/06, 6:15,21.2,76,21.6,22.9
 2004/10/06, 6:30,21.2,76,21.6,22.8
 2004/10/06, 6:45,21.2,76,21.6,22.8
 2004/10/06, 7:00,21.1,77,21.6,22.7
 2004/10/06, 7:15,21.1,77,21.6,22.7
 2004/10/06, 7:30,21.1,77,21.6,22.7
 2004/10/06, 7:45,21.1,77,21.6,22.6
 2004/10/06, 8:00,21.2,76,21.6,22.6
 2004/10/06, 8:15,21.5,73,21.7,21.9
 2004/10/06, 8:30,21.8,70,21.7,21.9
 2004/10/06, 8:45,23,68,21.9,21.9
 2004/10/06, 9:00,22.7,69,22,21.9
 2004/10/06, 9:15,23.4,67,22.2,22.2
 2004/10/06, 9:30,23.1,68,22.3,22.2
 2004/10/06, 9:45,23,68,22.3,22.2
 2004/10/06,10:00,22.8,68,22.3,22.2
 2004/10/06,10:15,23,68,22.4,22.2
 2004/10/06,10:30,23.5,64,22.5,22.2
 2004/10/06,10:45,23.8,63,22.6,22.2
 2004/10/06,11:00,23.8,61,22.7,22.2
 2004/10/06,11:15,26,55,22.8,22.2
 2004/10/06,11:30,26,55,23.1,22.2
 2004/10/06,11:45,25.5,56,23.2,22.2
 2004/10/06,12:00,25.5,54,23.3,22.3
 2004/10/06,12:15,25.6,55,23.5,22.3
 2004/10/06,12:30,25.5,54,23.6,22.3
 2004/10/06,12:45,25.1,52,23.7,22.3
 2004/10/06,13:00,24.8,55,23.6,22.4
 2004/10/06,13:15,24.6,57,23.6,22.4
 2004/10/06,13:30,24.6,57,23.7,22.4
 2004/10/06,13:45,25.1,56,23.9,22.4
 2004/10/06,14:00,25.2,52,24.2,22.5
 2004/10/06,14:15,24.9,53,24.1,22.5
 2004/10/06,14:30,25.3,55,24.3,22.5
 2004/10/06,14:45,25.6,53,24.8,22.6
 2004/10/06,15:00,25.8,51,25.1,22.6
 2004/10/06,15:15,25.6,50,25.1,22.7
 2004/10/06,15:30,25.5,50,25,22.7
 2004/10/06,15:45,25.3,51,25,22.8
 2004/10/06,16:00,25.1,51,24.9,22.8
 2004/10/06,16:15,24.8,52,24.8,22.9
 2004/10/06,16:30,24.6,54,24.7,22.9
 2004/10/06,16:45,24.4,55,24.6,23
 2004/10/06,17:00,24.1,54,24.5,23
 2004/10/06,17:15,23.8,56,24.3,23
 2004/10/06,17:30,23.6,57,24.2,23.1
 2004/10/06,17:45,23.4,57,24,22.8
 2004/10/06,18:00,23.2,58,23.9,22.8
 2004/10/06,18:15,23.1,59,23.8,22.8
 2004/10/06,18:30,23,59,23.7,22.9
 2004/10/06,18:45,23,59,23.6,22.9
 2004/10/06,19:00,22.8,58,23.5,23.6
 2004/10/06,19:15,22.7,58,23.3,23.6
 2004/10/06,19:30,22.6,59,23.2,23.7
 2004/10/06,19:45,22.4,61,23.2,23.7
 2004/10/06,20:00,22.4,62,23.2,23.7
 2004/10/06,20:15,22.4,62,23.1,23.7
 2004/10/06,20:30,22.3,62,23.1,23.7
 2004/10/06,20:45,22.2,62,23,23.7
 2004/10/06,21:00,22.3,63,23,23.7
 2004/10/06,21:15,22.4,63,23,23.7
 2004/10/06,21:30,22.5,63,23,23.7
 2004/10/06,21:45,22.5,63,22.9,23.7
 2004/10/06,22:00,22.5,63,22.9,23.7
 2004/10/06,22:15,22.6,63,22.8,23.7
 2004/10/06,22:30,22.5,63,22.8,23.6
 2004/10/06,22:45,22.5,64,22.8,23.6
 2004/10/06,23:00,22.5,64,22.7,23.6
 2004/10/06,23:15,22.4,64,22.7,23.6
 2004/10/06,23:30,22.4,64,22.6,23.6
 2004/10/06,23:45,22.3,64,22.5,23.6
 2004/10/07, 0:00,22.3,65,22.5,23.5
 2004/10/07, 0:15,22.2,65,22.5,23.5
 2004/10/07, 0:30,22.1,65,22.4,23.5
 2004/10/07, 0:45,22.1,65,22.3,23.5
 2004/10/07, 1:00,22.1,64,22.3,23.4
 2004/10/07, 1:15,22,65,22.2,23.4
 2004/10/07, 1:30,21.9,65,22.2,23.3
 2004/10/07, 1:45,21.8,65,22.1,23.3
 2004/10/07, 2:00,21.7,66,22,23.2
 2004/10/07, 2:15,21.7,66,22,23.2
 2004/10/07, 2:30,21.6,67,21.9,23.1
 2004/10/07, 2:45,21.5,67,21.9,23.1
 2004/10/07, 3:00,21.5,67,21.8,23
 2004/10/07, 3:15,21.4,67,21.8,23
 2004/10/07, 3:30,21.4,67,21.7,22.9
 2004/10/07, 3:45,21.3,68,21.7,22.9
 2004/10/07, 4:00,21.2,68,21.6,22.8
 2004/10/07, 4:15,21.1,68,21.5,22.8
 2004/10/07, 4:30,21.1,68,21.5,22.7
 2004/10/07, 4:45,21,68,21.4,22.7
 2004/10/07, 5:00,20.9,68,21.3,22.6
 2004/10/07, 5:15,20.8,69,21.3,22.6
 2004/10/07, 5:30,20.8,69,21.2,22.5
 2004/10/07, 5:45,20.7,69,21.2,22.5
 2004/10/07, 6:00,20.6,69,21.1,22.4
 2004/10/07, 6:15,20.6,69,21.1,22.4
 2004/10/07, 6:30,20.6,69,21,22.3
 2004/10/07, 6:45,20.5,70,21,22.3
 2004/10/07, 7:00,20.4,70,21,22.2
 2004/10/07, 7:15,20.5,70,21,22.2
 2004/10/07, 7:30,20.5,71,21,21.6
 2004/10/07, 7:45,20.5,71,21,21.5
 2004/10/07, 8:00,20.6,71,21.1,21.5
 2004/10/07, 8:15,20.8,70,21.1,21.4
 2004/10/07, 8:30,20.9,70,21.3,21.4
 2004/10/07, 8:45,21,69,21.3,21.4
 2004/10/07, 9:00,22.4,62,21.5,21.4
 2004/10/07, 9:15,23.8,57,21.7,23.2
 2004/10/07, 9:30,23.4,59,21.9,23
 2004/10/07, 9:45,23.7,60,22.1,22.9
 2004/10/07,10:00,24.2,59,22.3,22.9
 2004/10/07,10:15,24.6,58,22.7,22.8
 2004/10/07,10:30,25.2,57,22.9,22.8
 2004/10/07,10:45,26.1,54,23.2,22.8
 2004/10/07,11:00,26.9,51,23.6,22.8
 2004/10/07,11:15,27.3,50,23.8,23.8
 2004/10/07,11:30,27.3,52,24.1,23.7
 2004/10/07,11:45,26.5,53,24.3,23.7
 2004/10/07,12:00,26.2,52,24.4,23.7
 2004/10/07,12:15,26.1,54,24.5,23.7
 2004/10/07,12:30,25.9,56,24.5,23.7
 2004/10/07,12:45,25.7,58,24.5,23.7
 2004/10/07,13:00,25.5,58,24.5,23.8
 2004/10/07,13:15,25.3,59,24.5,23.8
 2004/10/07,13:30,25.2,58,24.5,23.8
 2004/10/07,13:45,24.8,58,24.4,23.9
 2004/10/07,14:00,24.6,58,24.3,23.9
 2004/10/07,14:15,24.5,58,24.3,23.9
 2004/10/07,14:30,24.5,59,24.3,23.9
 2004/10/07,14:45,24.5,61,24.3,24
 2004/10/07,15:00,24.4,60,24.2,24
 2004/10/07,15:15,24.4,61,24.2,24
 2004/10/07,15:30,24.4,61,24.2,24
 2004/10/07,15:45,24.3,61,24.2,24.1
 2004/10/07,16:00,24.3,61,24.1,24.1
 2004/10/07,16:15,23.9,60,24,24.1
 2004/10/07,16:30,23.8,61,23.9,24.1
 2004/10/07,16:45,23.8,62,23.9,24.2
 2004/10/07,17:00,23.9,63,23.9,24.2
 2004/10/07,17:15,23.8,63,23.9,24.2
 2004/10/07,17:30,23.8,63,23.9,24.2
 2004/10/07,17:45,23.8,62,23.9,24.2
 2004/10/07,18:00,23.7,62,23.8,24.3
 2004/10/07,18:15,23.7,62,23.8,24.3
 2004/10/07,18:30,23.7,62,23.8,24.3
 2004/10/07,18:45,23.7,62,23.8,24.3
 2004/10/07,19:00,23.6,62,23.7,24.3
 2004/10/07,19:15,23.6,63,23.7,24.3
 2004/10/07,19:30,23.6,62,23.7,24.3
 2004/10/07,19:45,23.6,63,23.7,24.3